Location: Unspecified
(0.0000°N, 0.0000°E)
Time: 23:21:52
(UTC+00:00)

Vanguard 2 - Pass Details

Date: 07 October 2020
Orbit: 554 x 2937 km, 32.9° (Epoch: 28 October)

Event Time Altitude Azimuth Distance (km) Brightness Sun altitude
Rises 18:02:04 0° 211° (SSW) 5,252 12.4 -3.6°
Reaches altitude 10° 18:07:05 10° 193° (SSW) 4,692 11.8 -4.8°
Maximum altitude 18:15:44 18° 154° (SSE) 4,607 11.3 -7.0°
Drops below altitude 10° 18:25:56 10° 117° (ESE) 5,686 11.4 -9.5°
Enters shadow 18:29:17 - 109° (ESE) 6,189 11.6 -10.4°
Sets 18:33:02 0° 101° (E) 6,790 - -11.3°
